sat.trackr.live / text

‹ back to catalog

STARLINK-3148

NORAD 49736 · 2021-115N

PAYLOAD ACTIVE UNKNOWN

§ Identity

Operator
Country
US
Launch date
2021-12-02
Launch site
AFETR
Launch vehicle
Mass (kg)
RCS (m²)

Purposes: comms

External: N2YO · Heavens-Above · Gunter

§ Orbital elements

Epoch: 2026-09-19T18:51:34.963776Z

Period
93.85 min
Inclination
53.1614°
Eccentricity
0.0001210
Mean motion
15.34393098 rev/d
Perigee alt
461.9 km
Apogee alt
463.6 km
Semi-major
6,840.9 km
B*
2.8745e-5
RAAN
344.7993°
Arg perigee
88.0370°
Mean anomaly
272.0772°
Rev number
26,501

§ Raw data

STARLINK-31481 49736U 21115N   26262.78582134  .00000595  00000+0  28745-4 0  99932 49736  53.1614 344.7993 0001210  88.0370 272.0772 15.34393098265016

JSON: /api/v1/satellites/49736 · /tle

For live sub-satellite position, see the globe view (requires WebGL).

§ Visibility from observer

Set your observer location to see the next 7 days of passes ≥ 10°. The values pass through the URL so the page stays shareable.

No JS? Fill the form by hand. The geolocation button needs JavaScript.